Location: ??????
(38.3184°N, 23.6932°E)
Time: 02:45:08
(UTC+00:00)

Meteor 1-21 Rocket - Pass Details

Date: 16 October 2021
Orbit: 834 x 906 km, 81.2° (Epoch: 04 December)

Event Time Altitude Azimuth Distance (km) Brightness Sun altitude
Rises 16:35:12 0° 356° (N) 3,494 7.4 -10.4°
Reaches altitude 10° 16:37:44 10° 2° (N) 2,561 6.7 -10.9°
Maximum altitude 16:43:25 51° 77° (ENE) 1,119 4.5 -12.0°
Drops below altitude 10° 16:49:07 10° 153° (SSE) 2,576 6.5 -13.2°
Sets 16:51:39 0° 158° (SSE) 3,516 7.2 -13.7°
